Wind_Speed
60 64 71 74 77 83 90 94 95 98 102 103 102 99 96 96 95 86 81 82 80 76 73 72 70 67 68 70 69 65 64 63 63 62 62 60 55 53 52 51 49 48 48 48 49 49 48 49 50 50 50 49 50 50 50 50 50 50 50 52 54 53 53 55 57 57 56 56 55 53 53 51 49 49 51 53 53 54 53 52 51 51 51 51 52 52 53
60 63 68 73 76 79 85 91 94 96 100 103 104 101 98 98 97 89 87 89 85 78 75 74 73 71 70 72 73 71 68 66 66 66 63 60 58 56 56 55 52 50 50 50 50 50 49 50 51 52 52 51 52 52 52 53 54 54 53 54 54 54 54 57 58 57 58 59 59 58 56 54 52 51 52 54 55 55 55 54 53 53 52 52 52 54 55
62 62 66 70 74 77 81 87 92 96 98 102 104 103 100 100 99 93 91 92 87 82 79 78 77 75 73 74 76 75 72 70 70 67 63 63 63 60 59 56 52 52 53 54 54 53 53 52 52 53 53 54 54 54 55 56 56 56 56 56 55 54 56 58 58 58 59 60 61 61 60 58 57 55 55 55 56 56 54 54 53 54 53 53 53 54 56
61 61 64 67 71 75 78 81 88 93 97 99 102 104 103 102 100 96 95 92 88 84 83 82 80 77 75 74 76 77 75 74 73 68 66 67 65 62 61 58 54 53 55 56 57 56 56 56 55 56 56 56 56 57 58 58 59 59 58 57 57 56 58 59 58 59 61 62 62 62 61 61 60 58 58 57 57 56 54 53 53 53 53 53 53 55 56
63 62 64 65 68 75 77 76 80 88 94 97 100 102 103 103 101 99 97 93 89 88 87 85 82 79 75 72 75 80 80 78 76 71 70 71 66 63 63 60 55 54 57 59 60 59 59 58 57 58 58 58 59 60 60 60 61 61 60 59 58 58 60 60 59 61 62 64 64 62 61 61 61 60 59 59 58 57 56 55 54 54 54 54 55 56 57
63 62 64 67 69 70 69 71 77 84 91 96 99 100 102 104 105 102 99 96 94 92 91 88 85 83 77 72 76 83 84 81 79 74 72 72 68 66 65 61 57 58 60 61 61 62 62 60 58 59 60 61 62 62 62 62 63 63 62 61 60 61 62 62 62 63 63 64 65 65 63 63 63 63 62 61 60 60 59 58 57 57 56 56 57 59 59
61 61 62 64 63 60 61 69 77 81 86 92 96 99 101 104 106 105 102 100 99 97 95 92 89 86 79 74 79 87 87 82 78 75 74 74 70 67 66 63 61 63 64 63 62 63 65 63 60 61 62 63 64 64 63 63 64 64 63 62 62 63 64 64 65 65 64 64 66 67 66 66 66 66 65 64 63 63 62 61 60 60 59 59 60 62 62
63 62 60 57 54 53 58 67 75 77 81 87 94 97 99 102 105 106 104 102 101 101 99 95 91 87 83 80 83 87 85 82 80 77 76 75 71 70 69 67 66 67 68 66 64 65 68 66 63 63 64 65 65 65 65 65 65 66 65 64 64 64 65 66 66 66 66 66 67 68 68 68 68 68 67 66 66 65 63 62 61 61 61 62 63 64 65
62 62 59 55 54 56 58 63 70 74 75 80 88 93 95 98 101 103 104 104 103 102 100 96 93 92 89 83 81 83 85 84 83 80 77 75 72 69 70 70 71 71 70 68 67 68 70 68 65 65 66 66 67 67 66 66 67 67 67 67 66 66 67 67 68 68 68 68 69 69 69 69 69 70 69 69 68 67 65 64 63 62 63 64 66 67 68
64 63 59 54 53 56 58 59 63 65 65 70 81 87 89 92 97 100 102 104 104 103 100 98 97 97 94 84 79 82 88 88 86 84 81 79 76 73 72 73 74 74 73 71 70 71 72 70 67 67 67 67 68 69 68 68 69 69 69 69 69 68 69 70 70 70 70 71 71 71 71 71 71 71 71 71 69 68 67 65 63 63 64 66 68 69 70
62 61 59 56 54 55 57 58 60 60 58 60 72 80 80 81 88 94 98 102 105 104 102 101 100 98 96 88 82 84 89 89 87 87 86 84 81 79 77 76 76 77 75 73 73 74 74 71 69 68 68 68 70 70 70 70 70 71 71 71 71 71 71 71 72 72 73 73 73 73 72 71 71 72 72 71 69 68 67 66 65 66 67 68 70 71 72
61 59 57 55 56 56 54 53 57 60 56 53 61 70 73 74 80 88 93 97 102 105 104 102 101 100 96 91 88 88 89 88 88 90 91 88 84 81 80 79 79 79 78 76 76 76 76 73 71 70 70 71 71 71 71 72 71 72 72 73 72 72 73 74 74 75 75 75 75 75 74 72 72 72 73 71 69 69 68 68 69 69 69 69 71 72 73
63 61 56 52 54 55 53 53 56 57 54 52 54 59 66 73 78 84 89 91 93 99 104 103 100 99 98 96 94 90 87 87 91 94 94 91 86 83 82 81 81 81 81 80 78 77 77 76 74 73 73 73 73 73 73 73 73 73 74 74 74 74 74 75 76 76 77 78 77 76 75 74 73 73 73 71 69 69 70 71 72 71 70 71 73 74 75
62 61 58 56 56 53 51 55 58 55 52 52 52 51 57 67 74 78 84 87 87 90 98 103 103 101 100 99 98 92 87 88 94 98 97 93 89 86 85 84 84 84 84 82 79 78 78 79 78 76 74 75 75 75 75 75 74 74 75 76 76 76 76 77 78 78 78 78 77 77 77 76 74 73 73 72 70 71 72 73 74 74 74 74 74 75 76
61 59 57 59 59 52 48 54 59 59 57 55 53 51 53 60 68 73 77 82 84 84 88 96 101 102 102 101 99 94 88 88 94 99 98 94 91 89 87 87 86 85 84 82 81 81 81 81 80 79 77 76 76 76 76 75 75 75 76 77 77 78 78 78 78 78 78 78 78 78 77 76 74 73 74 73 71 72 74 74 75 75 75 75 76 77 77
61 61 59 58 55 49 50 56 60 61 60 56 53 53 53 55 62 67 69 70 75 79 84 91 97 101 102 102 100 97 94 93 96 99 97 94 92 91 89 87 86 85 84 84 84 83 82 82 82 81 79 77 77 77 76 76 76 76 77 78 79 79 78 77 77 78 79 79 76 74 74 74 73 73 74 73 72 73 75 75 76 76 76 77 78 78 78
63 61 59 56 52 49 53 59 59 57 57 55 53 53 53 54 57 59 60 61 65 69 74 80 87 93 98 99 97 97 99 99 99 100 97 93 91 90 88 86 86 86 86 86 86 85 84 83 82 81 80 79 79 78 77 76 76 76 77 78 79 78 78 77 78 77 76 74 72 71 72 73 72 72 73 73 74 75 75 76 77 77 78 78 79 79 80
62 60 57 53 50 51 53 53 52 51 51 53 52 51 51 52 51 51 52 55 60 63 64 65 71 79 89 95 95 94 97 100 101 100 96 92 90 89 88 89 89 88 88 87 86 85 84 83 82 81 81 81 80 79 78 77 77 77 77 77 77 76 76 76 75 73 72 72 72 72 73 73 72 73 74 74 74 75 75 76 77 78 79 80 81 81 82
59 60 58 52 52 54 51 47 46 46 46 49 50 48 46 46 45 46 46 44 48 57 61 58 60 68 80 91 95 96 97 100 101 99 96 93 91 90 90 90 90 88 87 86 85 85 84 82 81 81 81 81 80 79 78 77 77 76 75 73 72 72 72 72 71 71 71 71 73 74 74 74 74 74 74 74 74 75 76 77 79 80 81 82 82 82 82
57 57 53 51 53 55 50 45 45 44 43 44 45 44 44 43 41 42 43 39 38 49 60 64 66 70 77 86 92 95 96 98 100 100 97 95 93 92 91 91 90 88 87 86 85 84 83 82 81 81 81 80 80 79 78 77 77 77 74 71 70 71 72 72 73 74 73 74 75 75 75 75 75 74 74 75 76 77 78 79 80 81 82 83 83 82 82
54 53 51 53 56 53 46 42 42 41 40 40 40 40 42 44 42 42 46 47 43 44 54 64 71 74 76 81 89 93 95 96 97 97 97 97 95 93 92 91 89 88 87 86 85 84 83 82 82 82 82 81 80 79 77 76 77 77 75 73 72 72 73 74 75 75 75 76 77 76 75 75 75 76 77 78 79 80 81 81 82 83 83 82 82 81 80
52 53 54 55 54 48 42 39 38 37 36 36 36 36 40 44 45 45 48 52 52 51 54 61 68 71 73 75 81 87 92 94 94 92 93 95 95 94 92 90 89 87 86 85 85 84 83 83 82 82 82 81 80 78 75 74 76 77 76 74 74 74 74 75 76 76 76 76 77 76 76 77 77 78 79 80 81 82 82 81 82 83 82 81 81 80 79
53 55 58 55 46 38 37 37 37 36 35 33 31 32 35 41 46 49 51 52 55 58 62 66 69 70 71 71 73 78 83 88 91 90 89 90 91 91 91 89 88 86 85 84 84 83 83 83 82 82 82 81 80 79 77 76 77 78 77 77 77 77 78 78 78 79 79 78 78 78 78 79 79 80 81 82 83 82 81 81 82 82 81 81 80 81 81
53 52 54 51 41 35 37 38 38 38 37 34 31 31 33 35 40 47 51 52 55 57 59 62 66 67 67 68 70 71 75 80 85 87 87 87 87 88 88 88 87 86 84 83 82 82 82 81 81 81 81 80 79 78 77 75 75 77 79 79 79 79 79 79 80 81 81 80 80 80 80 80 81 82 83 83 82 81 81 81 81 81 81 81 82 82 83
53 52 51 47 40 39 40 39 39 40 39 38 36 35 35 33 33 37 41 46 51 54 53 55 59 62 63 65 67 68 69 72 76 81 83 84 85 85 85 85 84 83 81 80 80 80 80 80 79 80 79 79 78 77 76 74 74 77 79 79 79 79 79 80 80 81 81 81 81 80 80 81 81 82 82 81 80 80 81 81 80 81 82 83 83 83 84
52 52 51 43 39 42 41 39 41 44 43 41 39 36 35 34 32 33 34 36 40 45 47 48 52 56 59 61 64 66 67 68 70 73 76 78 80 80 81 81 81 79 78 77 78 79 79 78 78 78 77 77 77 76 75 75 76 77 78 79 79 79 80 80 81 81 81 80 80 81 81 81 81 80 80 79 80 80 81 81 81 82 82 82 83 84 85
55 54 50 42 42 46 42 39 43 46 45 44 41 38 36 35 33 33 33 32 32 36 40 43 46 49 53 55 57 61 63 64 66 69 71 72 74 74 75 76 76 76 75 74 73 75 76 75 75 75 75 74 75 75 75 75 76 77 78 79 79 79 79 80 81 81 81 81 81 81 81 81 80 79 80 80 81 81 82 82 82 82 83 83 85 86 87
62 61 55 47 48 48 43 41 44 47 46 43 38 35 35 33 30 27 27 29 30 30 33 37 40 44 48 51 52 54 57 59 62 64 66 68 69 69 70 71 72 72 72 72 72 72 73 73 73 73 73 74 74 75 74 75 75 76 76 76 76 76 76 77 79 80 81 81 81 80 80 80 79 79 79 81 81 82 83 83 83 84 85 87 87 86 86
63 60 53 51 53 49 44 45 47 48 46 41 35 33 34 33 29 25 24 28 30 28 27 30 34 38 42 46 48 50 52 54 57 60 62 64 65 66 67 68 69 69 70 70 71 71 72 71 71 70 70 71 71 71 71 71 72 72 73 74 74 74 76 78 80 81 81 81 81 80 80 79 78 78 79 81 82 83 84 85 86 87 87 86 85 85 85
65 56 49 53 57 50 45 46 48 48 47 42 36 35 36 36 33 28 27 29 28 24 22 24 27 30 34 37 40 42 44 47 50 52 55 57 60 62 64 65 66 66 67 67 68 69 69 69 67 67 67 67 67 67 67 68 69 70 71 72 74 75 77 79 80 81 80 80 80 79 78 77 77 78 80 82 83 85 86 87 87 87 85 85 85 85 86
68 59 52 55 57 50 46 48 49 48 48 46 41 38 38 38 36 33 32 33 31 24 19 19 21 23 27 30 33 36 38 40 43 45 47 49 52 54 56 58 60 61 62 64 65 66 66 66 66 66 68 68 68 67 68 69 70 71 71 71 73 75 76 77 78 78 79 78 78 77 77 77 78 80 82 84 86 87 87 87 87 86 86 86 86 85 85
66 59 53 58 59 52 49 52 53 50 50 49 44 41 39 40 39 36 35 37 36 31 27 25 24 23 23 25 27 30 32 34 36 39 42 43 45 47 49 51 53 55 57 58 60 61 62 63 65 67 69 70 71 71 72 72 72 71 70 71 72 75 76 77 77 77 77 77 76 77 78 79 81 83 86 88 88 87 86 86 86 86 86 85 83 83 83
62 55 53 61 64 57 53 55 55 53 54 54 50 45 43 43 43 41 40 40 40 38 37 36 33 30 27 26 26 27 27 28 30 31 33 34 36 39 42 45 47 50 51 53 54 55 55 56 57 60 62 65 66 68 69 69 68 68 69 71 74 76 76 76 76 76 76 76 76 77 79 82 84 87 88 88 86 86 87 86 85 84 83 81 80 80 80
59 52 54 65 67 60 57 57 56 55 58 59 55 51 49 48 47 46 45 44 42 41 40 39 37 35 33 32 30 29 28 29 30 31 32 32 34 35 38 40 42 44 46 47 48 50 51 52 53 55 57 59 61 63 65 66 67 68 70 73 74 75 75 76 76 76 77 77 77 79 82 85 87 88 87 86 86 87 86 84 82 81 80 79 78 79 79
56 52 56 65 67 61 57 57 56 57 59 59 55 53 53 52 50 49 48 47 45 43 41 40 38 37 37 36 35 35 34 34 36 37 37 38 39 41 42 44 45 46 47 48 49 50 53 56 58 59 61 62 64 65 67 68 69 70 71 73 74 74 75 76 77 77 78 79 81 84 87 88 87 86 85 86 87 86 83 81 80 80 79 78 78 79 79
54 52 56 64 66 62 58 57 57 58 58 56 55 56 57 56 53 52 52 51 48 47 45 44 42 42 41 40 40 40 40 41 42 42 42 42 43 45 46 48 50 51 53 54 55 56 58 59 60 61 62 63 64 66 66 67 68 70 71 72 74 75 76 77 78 80 81 82 85 88 89 88 87 86 87 87 85 82 80 80 81 81 80 79 79 79 79
53 53 57 62 64 64 61 59 59 60 59 56 56 58 60 58 56 54 54 54 53 51 50 50 49 48 47 47 48 48 47 47 47 47 47 48 48 49 50 52 53 55 56 57 58 59 59 60 60 61 61 62 63 65 66 67 69 70 72 73 75 76 77 79 80 82 83 85 87 89 89 88 87 87 86 84 82 80 81 81 81 81 81 80 80 80 81
52 54 58 61 63 65 64 62 61 63 61 58 58 61 62 61 60 58 56 57 57 55 54 56 56 55 54 54 54 54 54 54 53 53 52 52 53 54 56 57 58 59 59 60 60 61 62 63 63 64 64 65 66 67 68 69 71 73 74 76 77 78 80 82 84 85 86 87 87 87 86 86 87 86 84 82 81 82 82 82 82 82 82 82 82 83 84
53 56 59 60 61 65 66 64 63 65 64 61 61 63 62 61 62 62 60 60 61 59 57 58 61 61 60 59 58 58 59 59 59 59 58 58 58 59 60 62 63 63 64 65 65 66 67 68 68 68 69 70 71 72 73 73 75 76 77 78 80 81 83 85 86 86 86 86 85 84 85 85 85 84 83 82 82 82 82 82 83 83 84 84 85 86 86
54 57 61 61 60 64 67 66 64 66 66 64 64 65 64 62 62 63 62 63 65 64 62 62 63 64 64 64 63 63 63 64 64 65 65 65 65 65 65 66 67 68 69 69 70 70 71 71 71 72 72 73 74 75 76 76 77 79 80 81 81 82 83 84 84 84 84 83 83 83 83 83 83 83 83 83 83 83 84 84 85 85 86 87 87 88 88
57 59 63 63 61 63 66 66 65 66 67 67 68 69 67 65 64 65 65 65 67 69 68 68 67 67 66 67 69 70 69 69 70 70 71 71 71 71 70 70 71 72 73 73 74 74 74 74 74 74 75 75 76 78 78 79 81 82 83 84 84 85 84 84 84 84 83 82 81 82 82 83 83 84 84 84 84 85 86 86 87 87 88 88 89 90 90
60 61 63 64 63 63 65 67 67 67 68 70 72 73 72 70 68 68 68 68 69 71 72 72 72 71 70 71 72 73 74 74 75 75 75 75 75 75 75 75 75 76 76 77 77 78 78 78 78 78 78 79 80 81 82 83 84 85 86 86 86 85 84 84 84 84 84 83 83 83 84 84 85 86 86 86 87 87 88 89 89 90 90 91 91 91 91
63 63 64 65 66 66 68 70 71 70 70 71 74 76 76 74 73 72 72 72 72 74 75 76 76 76 75 75 76 77 77 77 78 78 78 79 79 79 79 79 79 79 79 79 79 80 81 81 81 82 83 83 84 85 86 86 86 85 84 83 83 82 83 83 85 86 87 87 88 88 88 89 90 91 91 91 91 91 92 92 92 93 93 92 92 91 89
64 66 66 66 66 67 69 73 75 76 75 74 75 77 78 78 77 76 75 75 75 76 77 79 80 80 80 80 80 81 82 82 81 81 81 81 81 81 81 81 81 81 81 81 81 82 83 84 85 86 88 88 88 88 87 86 84 82 82 82 83 85 86 88 89 89 90 91 92 93 94 96 97 97 96 94 94 94 94 94 94 93 93 92 90 88 86
63 66 68 69 68 68 69 71 74 78 79 78 77 78 79 80 80 79 78 78 78 78 79 81 82 83 84 84 84 84 85 85 84 84 83 83 83 83 83 83 83 83 83 83 83 84 85 86 87 88 88 88 86 85 84 83 82 83 84 86 88 90 91 92 92 92 93 94 96 98 100 101 101 100 97 95 94 94 93 92 92 91 90 88 87 85 82
64 65 67 69 70 71 72 72 73 76 79 80 81 81 81 82 82 82 82 81 81 81 81 82 83 84 85 86 86 87 87 87 87 87 86 86 86 86 86 86 86 87 88 88 87 87 88 88 87 87 86 85 85 85 85 85 86 88 90 91 93 93 93 93 94 96 97 99 101 103 104 104 102 99 96 94 92 91 90 89 88 87 86 85 83 82 80
66 66 67 68 70 73 75 75 75 76 78 80 82 83 84 85 85 85 85 85 85 85 85 85 85 85 86 87 87 88 90 90 90 90 90 90 90 90 91 92 93 93 94 93 92 92 91 91 90 89 88 88 88 89 90 90 91 93 94 95 97 97 98 99 100 102 103 104 105 106 105 103 100 96 93 91 89 87 86 85 84 84 83 82 81 79 77
68 68 69 69 70 72 74 77 78 79 80 81 82 84 86 87 88 88 89 89 89 89 89 88 89 89 89 89 90 91 92 93 93 94 94 94 94 94 95 96 97 98 98 98 97 97 97 97 96 95 94 93 94 94 95 95 96 98 99 100 101 102 102 103 104 105 105 106 107 106 103 99 95 92 89 87 85 84 83 83 82 82 81 80 79 76 73
69 70 71 71 72 72 74 76 77 80 82 83 83 84 86 87 88 90 90 91 92 93 93 93 94 94 94 94 94 95 96 97 97 97 98 98 98 98 98 98 99 99 99 99 99 99 99 100 100 100 100 99 99 100 100 100 101 103 104 104 104 104 105 105 105 106 106 106 105 102 98 94 90 88 85 84 83 83 82 81 81 80 79 78 75 72 68
72 72 73 74 74 74 75 75 76 78 79 81 83 85 86 88 89 90 91 91 91 91 92 93 94 95 95 96 96 97 97 97 97 97 98 98 99 99 99 99 99 100 100 100 100 100 100 100 101 102 102 103 103 104 104 105 106 107 107 107 106 106 106 106 106 106 105 103 101 97 94 90 87 84 83 83 82 82 82 81 80 79 77 74 71 67 63
72 73 74 74 75 75 75 76 76 77 77 79 80 82 84 86 89 91 93 93 92 90 89 89 89 90 91 92 93 93 94 94 95 95 96 97 98 98 99 99 99 100 101 101 102 102 102 102 103 104 105 106 107 108 109 109 109 108 108 107 106 105 104 104 103 102 100 98 96 93 89 86 84 83 83 83 82 82 81 80 79 76 73 70 66 62 58
72 72 73 73 74 75 75 76 76 77 78 78 79 80 81 83 85 88 92 94 95 94 93 91 90 90 90 90 89 90 91 92 93 94 94 95 96 97 98 98 99 99 100 101 102 103 104 105 106 106 107 108 109 109 109 108 107 107 106 104 103 101 100 99 98 97 95 94 91 88 86 84 84 84 83 82 82 81 80 78 76 73 69 66 62 58 54
Wind_Direction
250 245 243 241 237 233 230 229 229 230 230 231 232 232 231 234 235 233 233 235 234 233 234 236 237 237 238 241 242 239 238 239 241 242 244 246 249 252 253 252 252 253 255 257 259 260 263 265 267 268 270 272 274 276 277 279 280 280 280 280 282 285 287 288 290 293 296 297 297 297 297 298 299 301 302 304 304 305 305 305 303 303 302 300 299 299 300
249 246 243 241 240 238 233 229 228 229 230 230 231 232 231 233 235 232 232 234 233 232 233 234 235 235 235 239 241 240 239 239 240 241 243 245 247 248 249 251 252 254 255 257 259 261 262 264 266 268 269 271 273 274 276 277 278 279 279 279 281 284 286 287 290 293 295 295 296 296 297 298 299 300 301 303 304 306 307 306 305 304 303 300 298 299 301
249 247 245 241 240 240 238 232 228 228 230 230 230 230 231 233 234 233 232 234 234 233 233 234 234 234 234 236 240 242 241 240 241 241 243 244 245 245 248 250 252 254 255 257 258 260 261 263 265 267 269 271 272 273 274 275 276 277 278 279 281 283 285 286 288 291 291 292 294 295 297 298 299 301 302 302 304 305 306 305 304 303 301 300 298 298 301
251 248 247 244 240 240 239 236 231 229 229 230 231 230 230 231 233 233 233 234 235 235 235 236 236 235 235 235 239 243 244 243 242 242 243 244 245 246 248 250 251 252 255 258 258 258 260 262 264 266 268 270 271 272 273 274 275 275 276 278 280 282 283 284 286 288 289 290 292 293 295 297 298 299 300 301 302 303 303 303 303 302 300 299 297 297 300
252 249 248 245 241 239 239 239 236 232 230 230 231 230 230 230 231 232 232 232 234 235 236 236 236 236 236 236 237 241 243 244 244 244 244 245 246 247 248 250 252 252 254 255 257 258 259 261 262 264 266 268 269 270 271 272 273 274 275 277 279 281 282 284 285 286 287 289 290 291 293 294 296 297 299 300 301 302 303 303 303 302 300 298 297 297 300
250 247 246 244 241 239 240 241 239 235 231 229 230 230 230 230 230 230 231 231 232 232 234 235 236 236 236 235 236 238 241 243 245 247 247 248 249 249 250 252 253 252 252 254 256 258 259 259 261 263 265 266 267 268 270 271 272 274 276 277 279 280 282 283 284 285 287 288 290 291 292 294 296 298 299 301 302 303 304 304 304 303 302 300 298 299 301
248 245 244 243 242 239 239 241 241 238 233 230 229 230 230 230 229 229 229 229 230 231 232 233 234 236 236 234 235 238 239 240 244 248 250 251 251 251 252 253 254 253 252 253 255 257 258 258 260 262 263 265 266 267 269 270 272 274 275 277 278 279 280 282 283 284 286 288 289 291 293 296 298 299 301 303 304 304 305 305 304 304 303 301 300 301 302
247 245 244 243 241 237 236 238 240 240 237 232 230 229 230 230 230 229 229 229 230 231 231 232 233 235 235 232 234 239 241 242 243 245 248 250 252 252 251 251 252 252 252 253 254 255 257 258 259 260 262 263 265 267 268 270 271 273 274 275 276 278 279 281 283 284 286 287 289 291 294 296 298 300 302 303 304 304 304 304 304 304 303 302 301 302 303
246 245 244 241 238 236 236 238 240 242 240 236 232 230 230 230 231 230 229 230 231 232 232 232 232 233 233 232 233 238 242 243 242 242 244 245 246 248 249 249 251 252 252 253 253 254 256 257 257 259 261 263 265 266 267 269 271 272 274 274 276 277 279 281 283 285 286 288 290 291 294 296 298 300 301 303 303 303 303 304 304 303 302 302 302 303 304
245 244 242 238 236 235 237 238 240 242 242 239 235 232 231 232 232 232 231 230 230 231 232 232 233 233 234 232 231 234 239 242 243 242 242 242 243 246 248 249 251 252 253 254 254 254 256 256 258 259 261 262 264 266 267 269 270 272 274 275 276 278 280 282 284 285 287 289 290 292 294 296 298 299 301 302 302 302 302 303 303 302 301 301 302 303 305
244 243 240 238 237 236 235 236 239 240 241 241 237 232 230 232 233 232 232 231 230 230 231 232 232 233 234 233 231 232 236 239 242 244 243 243 243 245 247 248 250 252 253 254 254 255 256 257 258 260 261 262 264 266 267 268 270 272 274 276 277 279 281 283 284 286 287 289 290 292 294 295 297 299 300 300 300 300 301 301 301 300 300 301 302 303 305
244 242 240 239 239 237 234 235 238 238 239 242 240 231 227 230 231 230 230 231 231 230 230 231 232 233 234 234 232 232 234 237 240 243 243 243 243 244 245 247 249 251 252 252 253 254 256 257 258 260 261 262 263 265 267 268 269 271 273 275 277 279 281 283 284 286 288 289 290 292 293 295 296 298 299 299 298 299 300 300 299 299 300 301 302 304 305
244 242 240 239 240 237 232 232 236 238 238 240 240 233 227 229 231 231 231 230 231 231 231 231 232 233 234 234 233 233 234 236 239 242 243 243 244 244 245 246 248 250 250 251 252 254 256 257 258 259 260 262 263 265 266 268 270 272 274 276 278 280 282 283 285 286 288 289 291 292 293 294 296 297 298 298 298 299 300 300 300 300 300 301 302 304 305
242 242 240 238 239 236 231 231 232 233 234 236 237 234 230 229 230 231 231 230 231 233 232 231 231 232 233 235 235 234 234 236 238 241 242 243 244 244 245 247 248 248 250 252 254 255 256 257 258 259 260 262 263 265 267 269 271 273 275 277 279 280 282 284 285 286 287 288 290 291 293 294 295 296 297 296 297 299 300 299 300 300 300 301 303 304 304
240 240 239 240 239 236 234 235 234 232 233 235 234 234 233 231 230 230 231 230 230 233 233 231 231 231 233 234 235 235 235 236 239 240 241 242 243 244 245 246 247 249 252 254 255 255 256 258 259 260 261 263 264 266 269 271 272 274 276 277 279 281 282 284 285 286 287 288 290 291 292 293 294 295 296 296 297 298 299 298 299 299 300 301 302 303 303
236 237 238 240 240 236 235 238 236 234 234 235 232 231 233 233 231 230 231 232 233 235 237 234 232 232 233 234 236 237 236 236 238 240 241 242 243 244 245 247 249 251 253 254 255 256 257 259 260 261 263 265 266 268 270 271 273 274 277 278 280 281 283 284 285 286 287 288 289 290 291 293 294 295 295 295 297 298 297 297 298 298 299 301 302 302 302
232 235 237 238 240 239 238 238 238 237 237 238 236 234 234 235 234 231 230 231 234 237 239 238 236 235 235 235 236 237 238 238 239 241 242 242 244 245 247 248 249 250 252 253 255 256 258 260 261 263 265 266 267 269 270 271 273 275 277 278 280 281 282 282 283 284 285 287 289 290 291 293 293 293 293 294 295 295 295 296 297 298 299 300 301 301 300
232 236 237 237 238 240 241 242 243 241 241 241 240 237 235 233 231 229 227 229 234 236 238 239 238 236 235 235 234 235 237 238 239 241 242 243 244 245 246 247 248 249 250 252 254 256 258 260 262 263 265 266 268 269 271 272 273 275 276 278 280 281 280 280 281 283 285 287 288 289 290 290 290 291 292 292 293 293 294 294 295 296 298 299 299 299 299
233 236 238 237 238 240 241 242 244 241 239 240 239 236 231 227 225 225 224 226 235 238 236 235 235 233 233 233 233 234 236 237 238 240 241 242 243 244 245 246 248 249 251 252 254 256 258 260 261 263 265 266 268 269 271 272 273 275 276 278 278 278 278 278 280 282 283 284 285 286 286 287 288 290 290 290 290 291 292 293 294 295 296 297 298 298 299
231 235 237 237 239 241 241 240 241 239 236 237 238 233 225 218 216 218 217 215 226 235 235 233 233 233 233 232 232 233 236 237 239 240 242 242 243 244 245 247 248 250 251 253 254 256 258 259 261 262 264 265 267 269 271 272 273 273 274 275 275 274 275 277 279 280 281 283 284 285 286 287 288 288 288 288 288 289 290 292 293 295 296 297 298 298 298
230 234 236 237 240 241 240 238 239 238 235 235 234 228 221 213 209 211 214 214 217 226 234 237 237 236 236 235 234 234 235 237 238 240 242 242 243 244 245 247 248 250 251 253 255 256 258 259 261 262 264 265 267 269 271 272 272 272 273 274 274 274 274 276 278 280 282 283 285 286 286 286 286 286 286 286 287 289 290 292 293 294 295 296 297 297 298
228 232 234 237 240 240 236 233 232 233 231 230 228 223 217 212 209 209 213 216 217 218 225 232 236 237 237 237 237 236 236 236 237 239 241 242 243 244 246 247 249 250 252 253 255 257 258 260 261 263 265 266 267 269 269 270 271 272 273 273 273 273 273 274 276 278 280 282 283 284 285 285 285 285 285 287 288 290 291 293 293 294 295 296 296 297 297
224 229 232 235 237 232 225 223 225 228 228 225 225 225 221 217 217 215 213 216 219 221 226 231 234 237 238 237 237 237 236 236 237 239 241 242 243 244 246 247 249 250 252 254 255 257 259 260 262 264 265 266 267 268 269 270 270 271 272 272 272 273 273 274 276 277 279 281 282 283 283 284 285 285 287 288 289 291 292 293 294 295 295 296 296 296 296
219 225 231 235 233 219 212 215 219 223 225 221 220 224 224 223 225 225 222 221 222 223 228 233 235 237 238 237 237 237 237 237 237 239 241 243 244 245 246 247 249 250 252 254 256 258 259 261 263 264 265 266 267 268 269 269 269 270 272 273 273 273 274 275 276 278 279 281 282 283 284 285 286 287 288 289 291 292 293 293 294 294 295 295 296 296 296
220 225 232 237 229 212 207 211 214 216 220 219 216 219 223 225 228 230 230 230 230 228 229 232 235 237 238 237 237 237 237 237 238 239 241 243 244 246 247 248 249 251 253 255 256 258 259 261 262 263 265 266 267 269 269 269 269 271 273 274 274 275 276 276 277 278 280 281 282 284 285 285 287 288 289 290 291 292 292 293 293 294 295 296 296 296 296
221 226 231 232 216 203 205 212 213 212 214 217 217 218 222 228 233 235 234 235 234 232 230 230 232 234 237 238 238 237 237 237 237 238 239 241 244 246 248 249 250 251 253 255 256 257 258 259 261 263 264 266 267 268 269 269 269 271 273 274 274 276 277 277 278 279 280 281 283 284 284 285 287 288 289 289 290 291 291 292 293 295 295 296 296 296 297
220 225 229 223 205 198 204 211 211 210 212 216 220 222 224 229 236 240 241 240 237 232 229 229 230 232 233 234 234 235 235 235 236 237 238 240 242 245 247 249 251 251 252 253 255 257 258 259 261 263 265 266 267 267 268 268 269 270 272 273 275 276 277 278 279 279 280 282 283 283 284 285 286 286 287 288 290 291 292 293 294 294 295 296 297 298 298
220 225 228 218 201 198 204 207 209 212 215 218 221 222 223 228 234 237 238 239 236 231 226 226 227 229 230 231 232 234 236 236 236 237 238 239 241 243 245 248 250 251 252 252 253 256 258 260 261 263 264 265 266 266 267 268 269 270 272 273 275 276 277 278 279 280 282 283 283 283 284 285 286 286 287 289 291 292 292 293 294 295 296 298 298 298 298
219 222 221 211 200 200 204 207 211 215 216 214 215 214 215 222 229 229 225 229 235 239 235 231 229 229 229 230 231 233 235 236 236 237 239 240 241 242 243 245 247 249 251 252 253 255 257 259 261 263 264 264 265 266 267 268 269 270 271 273 274 275 276 276 278 280 282 282 283 284 285 286 287 288 290 291 292 292 293 294 296 297 298 298 298 298 298
220 218 211 204 201 202 206 208 213 218 216 212 211 213 216 222 227 226 220 222 233 246 247 240 238 236 234 233 234 233 235 236 237 239 240 241 242 243 244 245 247 248 250 252 254 255 256 257 258 260 261 262 263 264 265 267 268 269 270 272 273 274 275 276 278 279 280 281 283 284 286 287 289 290 292 292 292 293 294 296 297 298 298 298 298 298 299
222 219 211 202 201 203 206 209 214 218 216 212 211 212 214 219 223 223 221 223 232 246 248 241 242 243 240 238 237 236 236 237 239 240 241 242 244 245 246 247 248 249 251 252 253 255 256 255 255 255 256 258 259 260 261 263 265 267 268 270 271 272 273 275 277 278 280 281 283 285 287 288 290 291 291 292 292 294 296 297 298 298 298 298 299 300 300
224 224 214 203 200 202 205 210 215 216 212 209 209 210 213 217 221 221 219 221 228 238 242 240 242 243 240 236 233 232 233 236 239 241 241 242 243 245 246 247 248 249 250 251 252 253 254 254 254 254 255 256 257 258 260 262 264 265 267 268 268 270 272 274 276 278 280 282 284 285 287 289 290 290 291 291 293 294 296 297 297 298 299 300 301 301 301
226 225 214 203 200 201 203 209 215 216 211 209 209 210 212 217 221 222 221 221 225 232 237 239 239 239 238 236 232 229 230 233 238 242 243 243 245 246 246 248 249 249 249 250 250 250 251 252 254 255 256 257 258 259 261 263 264 265 266 267 268 271 273 275 277 279 280 282 284 286 287 289 290 290 291 292 294 295 296 297 298 298 299 300 300 300 300
226 223 212 204 201 202 204 209 214 216 215 214 213 213 214 217 220 224 226 226 226 229 232 235 234 233 233 235 236 234 233 233 236 238 239 241 243 244 245 247 248 249 250 251 251 251 251 251 251 253 254 255 256 258 259 260 261 263 265 267 270 273 275 276 278 279 280 282 283 285 287 289 290 291 292 293 295 296 297 297 298 298 299 299 299 299 300
224 220 212 206 203 203 206 210 214 217 218 218 217 216 216 217 220 224 226 227 227 228 229 230 230 231 232 234 236 236 236 234 234 235 236 237 239 240 241 241 242 243 245 247 249 251 252 252 252 253 254 255 256 258 259 261 263 265 268 270 272 274 275 277 278 279 280 281 283 285 288 290 291 292 293 294 296 297 297 297 297 297 298 298 298 299 301
219 215 210 207 205 205 207 210 215 217 218 218 218 217 216 217 219 223 225 226 226 227 228 229 230 232 233 234 235 237 237 237 236 238 239 240 241 243 244 245 246 247 248 249 250 252 254 256 258 259 259 260 261 262 264 265 267 268 270 271 272 274 276 277 278 279 280 281 284 287 289 291 292 293 294 295 296 296 296 296 296 297 297 298 299 300 301
216 213 210 207 206 207 207 210 215 217 217 217 217 216 215 217 220 223 225 226 226 225 227 230 232 232 232 232 233 235 236 237 238 239 240 241 243 244 247 249 251 253 254 255 256 257 258 259 260 261 262 263 264 265 266 267 268 270 271 272 273 275 276 277 279 280 282 284 285 287 289 291 292 293 295 295 295 295 295 296 296 296 297 299 299 300 301
214 213 211 208 208 209 209 210 214 218 217 216 216 215 215 218 222 223 223 224 224 224 225 228 230 232 232 231 231 232 234 235 236 238 239 240 242 244 246 248 250 251 252 254 256 258 259 260 261 262 263 263 265 266 266 268 269 270 271 273 274 276 277 279 281 282 284 285 286 288 290 291 293 294 294 294 294 294 294 295 295 296 298 299 300 300 301
213 212 210 208 209 211 211 212 215 218 218 216 217 218 219 222 224 225 224 223 222 223 224 225 227 231 233 233 232 233 234 235 236 237 238 240 241 243 244 246 248 249 250 252 254 255 257 259 260 261 262 263 265 266 267 269 271 273 274 276 277 278 279 281 282 283 284 285 287 289 291 292 293 293 293 293 293 293 294 294 295 296 297 299 300 301 302
212 210 209 209 210 212 213 214 217 219 219 218 219 220 223 226 228 229 228 226 224 225 227 227 226 228 231 232 233 234 235 236 237 238 239 240 241 242 244 245 247 248 250 252 254 256 257 259 261 262 264 265 267 269 271 273 275 276 277 277 278 278 280 281 281 282 283 285 288 290 292 293 293 293 292 292 292 293 293 294 295 296 298 299 300 301 302
210 209 209 210 211 212 214 216 218 219 220 220 221 221 224 227 229 230 231 231 229 229 231 231 229 230 231 231 232 233 236 237 238 239 240 241 242 243 245 247 248 250 251 253 255 257 259 261 263 265 267 269 271 273 275 276 277 277 277 278 278 279 280 280 281 282 283 286 289 292 293 293 293 293 293 293 293 293 294 295 295 297 298 299 300 302 303
209 209 210 211 212 213 214 216 218 219 220 221 222 222 224 227 229 230 232 232 232 233 233 233 232 233 234 234 234 234 236 237 239 241 242 243 244 245 246 248 249 251 252 254 256 259 261 263 265 267 269 271 274 275 277 277 277 278 279 280 281 281 282 282 283 285 286 288 291 293 294 295 295 294 294 294 294 294 294 295 296 297 298 299 300 302 303
211 210 211 213 215 216 217 218 219 219 219 221 222 223 224 226 229 231 232 233 234 234 234 233 233 234 235 236 237 237 238 239 241 242 244 244 245 247 248 250 251 253 254 256 260 263 265 267 268 269 271 273 275 276 276 277 278 280 281 281 282 283 284 285 286 287 287 288 290 292 294 295 296 295 295 294 294 294 295 295 296 297 298 299 300 302 302
214 213 213 214 216 219 221 221 221 220 220 221 222 224 225 227 229 231 233 234 235 236 235 234 234 235 236 237 239 240 241 242 244 245 246 247 248 249 251 252 254 256 258 260 264 267 268 269 270 272 273 275 276 276 276 277 278 279 280 281 282 283 285 286 286 287 287 288 289 291 293 294 296 296 295 294 294 294 295 295 296 297 298 299 300 301 302
216 216 216 216 217 219 222 224 225 224 223 223 223 224 226 228 230 232 233 234 236 237 237 237 237 237 238 239 240 242 243 244 246 248 249 250 251 252 254 256 257 259 261 264 266 268 269 270 271 272 273 274 274 275 276 276 277 278 280 282 283 284 285 286 286 286 287 288 289 291 293 295 296 296 296 295 294 295 295 296 296 297 299 300 301 301 302
219 220 220 220 220 220 222 224 225 226 227 227 227 227 227 229 231 233 235 236 237 238 238 239 240 240 241 242 243 244 245 247 248 250 252 253 254 255 257 258 260 261 263 264 265 266 268 269 271 271 272 272 273 274 275 276 278 280 281 283 284 284 285 285 285 286 287 289 291 292 294 295 295 296 295 295 295 295 296 296 297 298 299 300 301 302 302
223 223 222 222 223 223 224 225 226 228 229 230 230 230 230 231 232 234 236 237 238 239 240 241 243 244 244 245 246 247 248 249 250 252 253 254 256 257 259 260 261 262 263 263 264 266 267 268 269 270 271 272 273 274 275 277 279 281 282 283 284 284 285 285 286 287 288 290 292 293 294 295 295 295 295 295 295 295 296 297 297 298 299 300 301 301 302
225 225 225 225 225 226 227 228 229 230 231 231 232 232 233 234 235 236 237 238 240 241 242 243 244 245 246 247 248 249 250 250 251 253 254 255 257 258 259 260 261 262 263 264 265 266 267 268 269 270 272 273 273 275 276 278 279 281 282 283 284 284 285 286 287 288 289 290 292 293 293 294 294 294 294 294 295 295 296 297 298 299 300 300 301 301 301
227 227 228 228 229 229 229 230 231 232 233 233 234 234 234 235 236 237 239 240 241 242 243 244 246 247 248 248 250 251 252 253 254 255 257 258 258 259 260 261 262 263 264 264 265 267 268 268 269 271 272 273 274 275 277 278 280 281 282 283 284 284 285 286 287 288 289 290 291 292 292 293 293 293 293 294 295 296 297 298 298 299 299 300 300 300 299
228 228 229 230 231 232 232 233 233 234 234 235 236 236 236 237 237 238 239 240 242 243 245 246 248 249 250 250 251 253 254 255 256 258 258 259 260 260 261 262 263 264 265 266 267 268 268 269 270 271 272 274 275 276 277 279 280 281 282 283 284 284 285 286 287 288 288 289 290 291 291 292 292 293 293 294 295 296 297 298 298 299 299 299 299 298 297
231 231 231 232 233 234 235 235 236 236 237 237 238 238 238 239 239 240 240 241 242 243 245 246 248 249 251 252 252 253 255 256 257 257 258 259 260 260 261 262 264 265 266 267 268 268 269 270 271 272 273 274 276 277 278 279 280 281 282 283 284 285 285 286 286 287 287 288 289 290 291 291 292 293 293 295 296 296 297 298 298 298 298 297 297 296 294
235 235 235 235 236 237 238 238 239 239 239 239 240 240 240 241 241 241 241 242 242 243 244 245 247 248 250 251 252 253 254 255 255 256 257 258 259 260 261 262 263 264 265 267 268 269 270 270 271 273 274 275 276 277 278 279 281 282 283 283 284 284 284 285 285 286 287 288 289 290 290 291 292 293 294 295 296 296 297 297 297 296 296 295 294 292 290
Height
10759 10760 10761 10767 10771 10772 10776 10782 10789 10793 10797 10801 10805 10814 10825 10824 10825 10845 10859 10855 10855 10866 10869 10870 10875 10877 10875 10874 10879 10886 10890 10892 10895 10897 10899 10902 10905 10909 10911 10913 10915 10917 10918 10918 10918 10919 10920 10920 10920 10920 10921 10922 10922 10921 10921 10921 10920 10920 10919 10916 10914 10914 10912 10908 10904 10903 10903 10904 10905 10906 10906 10906 10907 10904 10901 10898 10896 10893 10891 10888 10885 10883 10881 10879 10877 10874 10871
10750 10751 10751 10756 10761 10763 10766 10772 10779 10783 10785 10790 10796 10806 10817 10816 10819 10838 10844 10837 10845 10858 10861 10863 10866 10868 10867 10866 10868 10873 10879 10884 10886 10887 10893 10898 10900 10903 10905 10906 10909 10911 10912 10912 10913 10914 10914 10915 10915 10915 10916 10917 10916 10916 10916 10915 10914 10913 10912 10911 10911 10911 10907 10903 10901 10900 10899 10898 10898 10898 10898 10899 10899 10899 10897 10894 10890 10887 10885 10882 10880 10877 10875 10873 10870 10868 10865
10741 10743 10743 10746 10750 10754 10757 10762 10768 10772 10774 10779 10785 10796 10806 10807 10813 10827 10830 10830 10841 10850 10852 10854 10857 10860 10860 10857 10858 10863 10869 10873 10876 10881 10887 10889 10891 10895 10897 10899 10903 10905 10905 10906 10907 10908 10908 10909 10909 10909 10910 10911 10910 10910 10909 10908 10907 10907 10906 10905 10906 10906 10902 10898 10898 10898 10897 10895 10893 10892 10891 10891 10892 10892 10891 10888 10885 10883 10880 10878 10875 10872 10869 10867 10864 10862 10859
10733 10736 10735 10737 10741 10743 10745 10751 10758 10763 10767 10771 10777 10786 10795 10799 10806 10816 10819 10825 10838 10844 10844 10845 10848 10852 10855 10854 10853 10855 10860 10863 10867 10874 10879 10877 10881 10887 10889 10892 10897 10898 10899 10899 10899 10900 10901 10902 10904 10904 10904 10904 10904 10903 10902 10901 10900 10900 10900 10899 10900 10900 10897 10895 10896 10895 10893 10890 10888 10887 10886 10885 10885 10885 10884 10883 10881 10879 10876 10874 10871 10868 10864 10861 10859 10856 10854
10723 10726 10726 10728 10728 10727 10735 10747 10752 10754 10758 10762 10767 10775 10783 10789 10797 10803 10809 10820 10832 10832 10830 10834 10839 10845 10851 10854 10850 10846 10850 10854 10857 10865 10869 10868 10874 10880 10880 10884 10890 10892 10892 10892 10892 10893 10894 10896 10897 10897 10897 10897 10897 10895 10895 10894 10893 10892 10893 10893 10894 10894 10891 10889 10890 10889 10886 10884 10882 10882 10882 10880 10880 10880 10878 10877 10875 10873 10870 10867 10865 10862 10859 10856 10853 10850 10848
10712 10715 10716 10714 10713 10721 10736 10743 10741 10741 10747 10752 10757 10764 10771 10777 10783 10790 10800 10812 10816 10814 10815 10824 10832 10836 10844 10852 10846 10837 10838 10844 10850 10858 10861 10861 10867 10872 10873 10877 10882 10884 10884 10884 10886 10886 10885 10888 10890 10890 10890 10890 10889 10888 10888 10887 10886 10885 10886 10887 10887 10886 10884 10882 10883 10881 10879 10877 10875 10875 10875 10874 10873 10872 10871 10870 10867 10865 10862 10859 10856 10854 10852 10849 10846 10843 10842
10702 10705 10704 10704 10711 10724 10732 10729 10726 10730 10737 10742 10747 10753 10759 10764 10770 10779 10790 10796 10799 10800 10805 10814 10820 10826 10837 10845 10838 10827 10828 10837 10847 10853 10854 10855 10860 10864 10866 10870 10872 10873 10874 10876 10879 10878 10876 10879 10884 10883 10883 10882 10881 10881 10882 10881 10879 10878 10879 10880 10880 10880 10878 10876 10875 10874 10873 10872 10869 10867 10867 10865 10864 10863 10862 10861 10859 10856 10854 10851 10849 10846 10844 10842 10839 10836 10834
10693 10695 10697 10703 10712 10718 10717 10715 10717 10721 10726 10732 10737 10742 10749 10755 10761 10771 10781 10786 10789 10791 10797 10805 10813 10819 10826 10831 10828 10824 10826 10833 10841 10846 10848 10850 10855 10857 10859 10861 10862 10863 10864 10867 10872 10871 10868 10872 10876 10876 10875 10874 10874 10875 10875 10874 10873 10872 10873 10874 10874 10873 10872 10870 10869 10868 10867 10865 10863 10862 10860 10858 10857 10855 10854 10853 10851 10848 10846 10844 10842 10839 10836 10834 10831 10828 10827
10684 10687 10692 10699 10704 10705 10706 10707 10709 10712 10719 10726 10730 10736 10744 10750 10755 10763 10771 10777 10781 10785 10792 10801 10806 10806 10810 10819 10826 10827 10825 10825 10829 10836 10841 10844 10846 10848 10850 10853 10853 10853 10856 10859 10863 10862 10860 10864 10868 10868 10868 10868 10867 10868 10868 10868 10867 10866 10866 10867 10867 10867 10866 10864 10863 10862 10860 10859 10857 10855 10854 10852 10850 10848 10847 10845 10842 10840 10838 10836 10834 10832 10829 10826 10823 10821 10819
10675 10679 10684 10690 10695 10697 10698 10700 10704 10708 10714 10718 10721 10729 10739 10744 10748 10753 10759 10766 10771 10777 10785 10793 10795 10795 10800 10813 10823 10822 10816 10815 10820 10826 10830 10834 10837 10840 10842 10844 10844 10844 10847 10851 10852 10852 10852 10856 10860 10861 10862 10862 10860 10860 10861 10861 10860 10859 10859 10860 10860 10860 10859 10858 10856 10855 10853 10852 10850 10848 10847 10845 10843 10841 10839 10837 10835 10831 10829 10828 10826 10824 10821 10818 10816 10814 10811
10668 10672 10677 10683 10688 10689 10690 10695 10699 10702 10705 10709 10712 10721 10731 10736 10737 10741 10747 10754 10760 10767 10775 10780 10784 10787 10795 10807 10815 10810 10805 10809 10813 10815 10818 10823 10828 10833 10835 10836 10836 10835 10838 10842 10843 10842 10843 10848 10852 10853 10854 10855 10854 10854 10854 10854 10854 10853 10853 10852 10852 10853 10852 10850 10849 10847 10846 10845 10843 10842 10840 10838 10836 10834 10832 10830 10828 10825 10822 10820 10817 10816 10814 10811 10808 10806 10803
10662 10665 10671 10677 10679 10680 10686 10691 10692 10694 10699 10702 10703 10711 10723 10724 10721 10725 10734 10743 10750 10757 10765 10770 10775 10782 10791 10799 10801 10797 10798 10805 10806 10803 10805 10811 10818 10824 10827 10828 10828 10829 10830 10832 10833 10834 10836 10841 10845 10846 10847 10847 10847 10847 10847 10847 10848 10847 10846 10846 10846 10845 10844 10843 10842 10840 10839 10837 10836 10835 10833 10832 10830 10828 10825 10823 10821 10818 10815 10812 10810 10808 10807 10804 10801 10798 10795
10654 10658 10666 10671 10670 10673 10681 10685 10684 10688 10694 10694 10693 10703 10713 10713 10712 10719 10727 10734 10741 10747 10755 10762 10770 10778 10782 10785 10786 10790 10797 10801 10797 10792 10793 10801 10809 10815 10818 10821 10822 10821 10820 10822 10826 10829 10830 10833 10836 10839 10840 10839 10840 10840 10840 10840 10841 10841 10839 10839 10839 10838 10837 10836 10834 10833 10831 10830 10829 10827 10825 10824 10823 10821 10818 10816 10814 10811 10808 10805 10803 10801 10800 10797 10794 10791 10787
10647 10652 10658 10660 10660 10666 10675 10677 10677 10681 10684 10684 10688 10698 10703 10703 10706 10712 10718 10726 10733 10738 10745 10754 10762 10767 10770 10773 10778 10785 10793 10793 10786 10781 10783 10792 10800 10806 10810 10813 10812 10811 10811 10816 10821 10824 10824 10823 10826 10831 10833 10833 10832 10832 10833 10833 10834 10834 10833 10832 10831 10831 10830 10829 10827 10826 10824 10823 10821 10819 10817 10816 10814 10813 10811 10809 10806 10803 10800 10797 10795 10793 10791 10789 10786 10783 10779
10640 10643 10647 10648 10651 10662 10669 10667 10667 10671 10673 10677 10684 10690 10692 10695 10700 10705 10712 10720 10727 10731 10735 10742 10750 10756 10760 10764 10770 10779 10785 10782 10774 10770 10775 10784 10792 10796 10800 10802 10802 10804 10809 10812 10814 10816 10816 10816 10818 10821 10825 10826 10826 10826 10826 10827 10827 10827 10826 10825 10824 10823 10822 10820 10819 10817 10816 10816 10815 10813 10810 10807 10806 10805 10803 10801 10798 10795 10792 10789 10787 10785 10782 10780 10778 10774 10771
10632 10634 10638 10640 10647 10658 10661 10656 10655 10661 10665 10671 10678 10682 10685 10690 10695 10700 10708 10716 10722 10724 10726 10732 10741 10747 10752 10758 10766 10773 10776 10771 10762 10760 10767 10776 10781 10786 10790 10795 10798 10802 10804 10804 10804 10806 10808 10810 10811 10813 10816 10819 10819 10820 10821 10822 10822 10821 10820 10818 10816 10815 10814 10812 10810 10810 10809 10809 10808 10806 10802 10800 10798 10797 10794 10792 10790 10787 10784 10781 10778 10776 10774 10772 10769 10766 10762
10623 10626 10630 10635 10643 10650 10649 10645 10648 10656 10662 10667 10672 10676 10681 10685 10688 10695 10705 10715 10719 10720 10723 10729 10736 10743 10749 10755 10762 10767 10767 10761 10754 10753 10760 10769 10776 10781 10786 10790 10792 10793 10793 10794 10796 10798 10800 10802 10804 10807 10809 10810 10811 10813 10815 10816 10816 10815 10814 10812 10809 10808 10806 10804 10803 10802 10802 10801 10800 10798 10795 10793 10792 10790 10787 10784 10782 10780 10777 10773 10770 10768 10766 10764 10761 10758 10755
10618 10621 10625 10632 10638 10640 10640 10642 10646 10653 10658 10660 10664 10670 10675 10679 10683 10691 10705 10716 10718 10719 10724 10729 10732 10739 10745 10746 10749 10755 10754 10749 10746 10748 10755 10765 10771 10774 10777 10779 10780 10782 10784 10786 10789 10790 10792 10795 10798 10800 10801 10801 10803 10806 10807 10808 10808 10808 10807 10805 10802 10800 10797 10796 10795 10794 10794 10792 10791 10790 10788 10786 10785 10783 10781 10778 10775 10773 10770 10766 10763 10761 10759 10756 10754 10750 10747
10615 10616 10621 10628 10632 10633 10636 10640 10642 10646 10650 10652 10657 10663 10669 10674 10680 10688 10701 10714 10718 10718 10721 10724 10727 10732 10735 10733 10735 10740 10739 10736 10738 10743 10749 10756 10760 10763 10766 10767 10769 10773 10777 10779 10781 10783 10785 10788 10790 10791 10792 10793 10795 10797 10799 10800 10800 10800 10799 10798 10795 10791 10788 10787 10787 10786 10786 10785 10784 10782 10780 10778 10777 10776 10774 10771 10768 10766 10763 10760 10757 10755 10752 10749 10746 10742 10739
10608 10611 10618 10624 10625 10626 10630 10634 10636 10638 10643 10648 10652 10657 10663 10668 10674 10681 10691 10704 10710 10708 10707 10709 10711 10715 10718 10719 10722 10726 10728 10729 10733 10737 10741 10746 10749 10752 10756 10759 10762 10766 10769 10771 10774 10776 10778 10780 10782 10783 10784 10785 10787 10789 10791 10792 10791 10791 10790 10789 10787 10784 10781 10780 10779 10779 10779 10778 10776 10775 10773 10771 10770 10769 10766 10763 10761 10759 10757 10754 10752 10748 10744 10741 10738 10734 10731
10604 10609 10614 10617 10618 10620 10624 10629 10631 10634 10639 10643 10647 10652 10657 10662 10668 10673 10680 10689 10695 10695 10694 10694 10695 10698 10702 10706 10709 10713 10718 10722 10725 10729 10733 10736 10739 10743 10747 10751 10754 10758 10761 10763 10766 10768 10770 10772 10773 10774 10775 10777 10779 10781 10783 10782 10780 10780 10781 10780 10779 10777 10774 10773 10771 10770 10770 10769 10768 10767 10766 10764 10763 10762 10759 10755 10753 10751 10750 10748 10744 10741 10737 10734 10730 10727 10723
10601 10604 10607 10609 10612 10616 10620 10624 10627 10629 10633 10637 10641 10645 10651 10655 10660 10666 10670 10675 10681 10683 10681 10681 10684 10687 10691 10695 10699 10703 10709 10713 10717 10720 10724 10726 10730 10734 10739 10743 10747 10750 10753 10756 10758 10760 10762 10764 10765 10766 10767 10769 10771 10774 10775 10773 10770 10770 10771 10771 10770 10768 10766 10765 10764 10762 10761 10760 10759 10759 10758 10757 10755 10754 10751 10747 10745 10743 10742 10740 10736 10732 10729 10726 10722 10719 10716
10596 10597 10600 10604 10608 10612 10616 10619 10622 10624 10627 10631 10635 10640 10645 10649 10653 10657 10662 10666 10670 10671 10670 10672 10675 10679 10683 10688 10692 10696 10701 10706 10710 10713 10716 10719 10723 10727 10731 10735 10739 10742 10745 10748 10750 10752 10754 10756 10758 10758 10758 10760 10763 10765 10766 10765 10762 10760 10761 10762 10762 10760 10759 10758 10756 10754 10753 10752 10751 10750 10749 10748 10746 10744 10742 10739 10736 10734 10732 10730 10726 10722 10720 10716 10713 10710 10706
10590 10592 10595 10600 10604 10609 10611 10614 10617 10620 10623 10627 10633 10636 10640 10644 10647 10650 10655 10659 10661 10663 10665 10667 10669 10672 10675 10679 10684 10688 10693 10699 10703 10707 10710 10713 10715 10718 10722 10727 10730 10734 10738 10741 10743 10744 10746 10748 10749 10749 10749 10750 10752 10754 10755 10755 10753 10751 10751 10751 10752 10751 10750 10750 10747 10745 10744 10743 10742 10741 10740 10738 10736 10733 10731 10729 10727 10724 10722 10720 10716 10713 10709 10706 10703 10700 10696
10586 10589 10591 10595 10600 10605 10607 10610 10613 10616 10619 10624 10629 10633 10635 10639 10642 10644 10648 10651 10654 10658 10661 10663 10664 10667 10670 10672 10676 10681 10686 10692 10697 10701 10704 10706 10707 10710 10715 10719 10724 10728 10732 10734 10735 10736 10738 10739 10740 10740 10741 10741 10742 10744 10745 10745 10743 10741 10740 10740 10741 10741 10741 10739 10737 10736 10735 10734 10733 10731 10730 10728 10726 10723 10721 10719 10717 10714 10711 10709 10706 10704 10700 10697 10693 10690 10686
10582 10584 10586 10592 10597 10600 10603 10606 10609 10613 10616 10619 10624 10628 10631 10634 10637 10639 10642 10645 10648 10653 10657 10659 10659 10661 10664 10667 10669 10673 10679 10684 10689 10693 10696 10698 10701 10704 10708 10711 10717 10721 10724 10725 10725 10726 10729 10731 10731 10732 10733 10734 10734 10735 10735 10735 10734 10732 10731 10730 10730 10730 10730 10729 10727 10726 10726 10726 10725 10722 10721 10719 10717 10714 10712 10710 10708 10705 10702 10700 10698 10695 10691 10688 10684 10680 10676
10576 10578 10583 10590 10593 10594 10598 10602 10605 10609 10612 10615 10620 10624 10627 10630 10632 10635 10637 10640 10644 10647 10651 10653 10654 10656 10659 10662 10664 10666 10671 10677 10681 10685 10688 10691 10695 10698 10701 10704 10708 10712 10715 10717 10717 10717 10719 10722 10723 10724 10726 10726 10726 10725 10725 10725 10724 10723 10722 10722 10721 10721 10720 10718 10717 10716 10716 10716 10714 10712 10711 10709 10708 10705 10703 10701 10698 10695 10693 10691 10689 10685 10682 10679 10676 10671 10666
10569 10573 10579 10585 10587 10589 10594 10599 10602 10604 10608 10613 10617 10621 10624 10626 10629 10631 10633 10636 10638 10641 10644 10646 10648 10650 10653 10656 10658 10661 10665 10670 10674 10678 10681 10684 10688 10692 10695 10698 10700 10703 10705 10707 10709 10709 10711 10713 10715 10717 10717 10716 10715 10715 10716 10717 10717 10715 10714 10713 10713 10712 10711 10708 10706 10706 10705 10704 10703 10702 10700 10699 10698 10696 10694 10691 10689 10686 10683 10681 10679 10676 10672 10669 10665 10660 10656
10563 10569 10575 10580 10583 10587 10591 10595 10597 10600 10605 10611 10614 10617 10620 10623 10625 10628 10630 10632 10634 10636 10639 10641 10643 10645 10647 10650 10653 10656 10660 10663 10667 10670 10673 10677 10681 10685 10688 10690 10693 10695 10696 10698 10701 10702 10704 10706 10708 10709 10708 10706 10706 10707 10709 10709 10709 10708 10707 10705 10704 10703 10702 10700 10698 10697 10695 10694 10692 10692 10690 10689 10688 10686 10684 10682 10679 10676 10673 10671 10669 10666 10662 10658 10654 10650 10645
10558 10565 10571 10575 10578 10583 10588 10592 10594 10597 10602 10608 10611 10614 10617 10620 10622 10625 10627 10629 10630 10633 10635 10636 10639 10641 10643 10645 10648 10651 10654 10657 10660 10663 10666 10670 10673 10676 10679 10682 10684 10687 10689 10690 10692 10694 10696 10699 10701 10701 10699 10699 10700 10700 10701 10701 10700 10699 10698 10697 10695 10694 10692 10691 10690 10688 10687 10685 10683 10682 10681 10680 10679 10678 10676 10673 10669 10666 10664 10661 10657 10654 10651 10648 10644 10640 10635
10554 10560 10566 10571 10575 10580 10585 10588 10591 10594 10599 10604 10607 10610 10612 10615 10618 10621 10624 10626 10627 10629 10631 10633 10635 10637 10639 10641 10643 10646 10648 10651 10654 10657 10660 10663 10665 10668 10671 10673 10675 10678 10681 10683 10685 10686 10688 10690 10693 10693 10692 10692 10693 10693 10692 10692 10691 10690 10690 10689 10687 10685 10684 10683 10681 10680 10679 10677 10675 10673 10672 10672 10671 10669 10667 10663 10660 10658 10656 10652 10647 10643 10640 10637 10634 10629 10623
10549 10555 10562 10567 10571 10575 10579 10582 10586 10589 10594 10598 10602 10605 10607 10610 10613 10617 10620 10623 10625 10626 10628 10630 10631 10633 10635 10637 10639 10641 10644 10646 10648 10651 10654 10657 10659 10661 10663 10666 10668 10671 10673 10675 10677 10678 10679 10681 10683 10683 10683 10683 10684 10684 10683 10683 10683 10682 10681 10680 10678 10677 10676 10675 10674 10672 10671 10670 10668 10666 10665 10663 10662 10659 10657 10654 10651 10649 10646 10642 10638 10634 10631 10628 10624 10619 10611
10546 10551 10557 10561 10564 10568 10572 10576 10580 10584 10588 10592 10597 10601 10603 10606 10609 10612 10615 10618 10620 10622 10624 10626 10628 10630 10632 10633 10635 10638 10640 10642 10645 10647 10649 10651 10654 10656 10658 10660 10662 10664 10666 10668 10669 10671 10672 10673 10674 10674 10674 10675 10676 10675 10675 10675 10675 10674 10673 10671 10670 10669 10668 10667 10666 10664 10663 10662 10661 10659 10657 10655 10652 10649 10647 10645 10642 10639 10636 10633 10629 10626 10623 10620 10617 10610 10603
10542 10547 10551 10555 10559 10564 10568 10572 10576 10579 10582 10587 10593 10596 10599 10602 10604 10607 10609 10612 10615 10618 10620 10623 10625 10627 10628 10630 10632 10634 10636 10639 10641 10643 10645 10647 10649 10651 10653 10655 10657 10658 10660 10661 10662 10663 10664 10666 10667 10667 10667 10667 10667 10667 10666 10666 10667 10666 10665 10662 10661 10661 10660 10658 10657 10656 10655 10654 10653 10651 10648 10645 10643 10640 10638 10635 10632 10629 10626 10622 10620 10617 10615 10612 10608 10602 10596
10538 10542 10546 10549 10555 10561 10565 10568 10572 10575 10579 10584 10589 10592 10594 10597 10599 10602 10604 10606 10609 10612 10615 10617 10620 10622 10624 10626 10628 10630 10632 10635 10636 10638 10640 10642 10644 10646 10648 10649 10650 10652 10653 10654 10655 10656 10657 10658 10659 10658 10658 10659 10658 10657 10657 10658 10658 10658 10656 10654 10653 10652 10651 10650 10649 10648 10647 10645 10643 10641 10638 10636 10634 10631 10628 10625 10622 10619 10616 10613 10610 10607 10605 10603 10598 10593 10588
10535 10538 10541 10546 10552 10557 10561 10564 10567 10570 10575 10580 10584 10587 10589 10592 10595 10597 10599 10602 10604 10607 10610 10612 10615 10617 10619 10621 10623 10626 10628 10630 10632 10633 10635 10637 10638 10640 10642 10643 10644 10645 10646 10647 10647 10648 10649 10650 10650 10650 10650 10650 10650 10649 10649 10650 10650 10649 10648 10646 10645 10644 10643 10641 10640 10639 10637 10636 10633 10631 10628 10626 10624 10621 10618 10615 10612 10610 10607 10603 10600 10597 10594 10592 10588 10584 10580
10532 10535 10538 10543 10548 10552 10556 10560 10562 10565 10570 10575 10578 10581 10584 10587 10589 10592 10594 10597 10599 10602 10605 10607 10609 10612 10614 10616 10618 10620 10622 10624 10626 10628 10630 10631 10633 10635 10636 10637 10637 10638 10639 10639 10639 10640 10641 10642 10643 10642 10642 10643 10642 10641 10642 10641 10640 10640 10639 10638 10637 10636 10634 10632 10630 10629 10628 10626 10624 10621 10618 10616 10613 10611 10608 10605 10602 10599 10597 10593 10590 10586 10583 10580 10578 10574 10570
10529 10532 10536 10540 10545 10549 10552 10555 10557 10561 10566 10570 10572 10574 10577 10580 10582 10585 10589 10591 10594 10597 10599 10602 10604 10606 10608 10610 10612 10614 10616 10618 10620 10621 10623 10624 10626 10627 10628 10629 10630 10631 10631 10631 10632 10632 10633 10634 10634 10635 10635 10635 10634 10633 10633 10633 10632 10630 10629 10628 10628 10627 10625 10622 10621 10620 10618 10615 10613 10611 10609 10605 10603 10600 10597 10595 10592 10589 10586 10583 10580 10576 10572 10569 10566 10563 10559
10525 10528 10532 10537 10541 10545 10548 10551 10553 10556 10561 10565 10567 10569 10572 10574 10577 10580 10583 10586 10588 10591 10594 10596 10598 10600 10602 10604 10606 10608 10609 10611 10612 10614 10615 10616 10617 10619 10620 10621 10622 10623 10623 10623 10623 10624 10624 10624 10625 10626 10626 10626 10625 10624 10623 10623 10622 10620 10619 10619 10619 10617 10615 10612 10611 10609 10607 10605 10603 10601 10598 10596 10593 10590 10587 10585 10582 10579 10576 10573 10570 10567 10563 10560 10556 10553 10550
10521 10525 10529 10533 10537 10540 10543 10546 10549 10552 10556 10559 10561 10564 10566 10569 10571 10574 10577 10580 10582 10585 10587 10589 10591 10594 10596 10598 10600 10601 10602 10603 10604 10605 10606 10608 10609 10610 10611 10612 10612 10613 10614 10614 10614 10615 10615 10614 10615 10615 10616 10616 10615 10614 10613 10613 10612 10611 10610 10609 10608 10607 10606 10604 10601 10599 10597 10595 10593 10591 10589 10586 10583 10580 10578 10575 10572 10569 10566 10563 10560 10557 10554 10550 10546 10543 10539
10516 10520 10524 10528 10531 10534 10537 10540 10543 10547 10551 10554 10555 10557 10560 10563 10565 10567 10570 10572 10575 10577 10579 10581 10584 10587 10589 10590 10592 10592 10593 10594 10595 10596 10598 10599 10600 10602 10603 10604 10604 10604 10605 10605 10605 10605 10605 10605 10605 10605 10605 10605 10603 10603 10603 10603 10602 10601 10600 10598 10598 10597 10596 10594 10592 10590 10588 10585 10583 10581 10578 10576 10574 10571 10568 10565 10562 10559 10556 10553 10550 10547 10544 10540 10536 10532 10529
10512 10516 10519 10523 10526 10528 10531 10534 10537 10540 10544 10547 10549 10550 10553 10555 10557 10560 10562 10564 10566 10569 10571 10573 10575 10578 10580 10581 10583 10584 10585 10586 10587 10588 10589 10591 10592 10594 10595 10595 10595 10595 10596 10596 10596 10595 10595 10595 10595 10595 10594 10594 10593 10592 10592 10591 10591 10590 10589 10587 10586 10585 10584 10583 10581 10579 10576 10574 10572 10569 10567 10565 10563 10560 10558 10555 10552 10548 10545 10542 10539 10536 10533 10529 10525 10521 10518
10508 10512 10515 10518 10521 10523 10525 10528 10530 10533 10537 10540 10542 10544 10546 10548 10550 10552 10554 10556 10558 10560 10562 10564 10566 10568 10570 10572 10574 10575 10576 10577 10578 10580 10581 10582 10584 10585 10586 10586 10585 10585 10586 10586 10586 10585 10585 10585 10584 10584 10583 10583 10583 10582 10582 10581 10581 10580 10578 10577 10575 10574 10573 10571 10569 10567 10565 10563 10560 10558 10556 10554 10552 10549 10547 10544 10541 10537 10534 10530 10527 10524 10521 10518 10514 10510 10507
10503 10507 10510 10513 10516 10519 10521 10523 10525 10527 10530 10533 10536 10538 10539 10541 10543 10545 10547 10549 10550 10552 10554 10556 10558 10560 10561 10563 10565 10566 10567 10568 10570 10571 10572 10573 10574 10575 10576 10576 10576 10576 10577 10577 10576 10576 10575 10574 10573 10573 10573 10573 10573 10572 10572 10572 10571 10569 10568 10566 10565 10563 10562 10560 10558 10555 10553 10551 10548 10546 10544 10542 10540 10537 10535 10532 10529 10526 10522 10519 10515 10512 10509 10506 10503 10499 10495
10500 10503 10506 10509 10511 10514 10516 10518 10520 10522 10524 10527 10529 10531 10533 10534 10536 10537 10539 10541 10542 10544 10546 10548 10550 10552 10553 10555 10556 10558 10559 10560 10561 10563 10564 10565 10565 10566 10567 10567 10567 10567 10567 10567 10567 10567 10565 10564 10563 10563 10563 10563 10562 10562 10562 10561 10560 10559 10557 10555 10553 10552 10550 10549 10546 10544 10541 10539 10537 10534 10532 10530 10528 10526 10523 10520 10517 10514 10511 10507 10504 10501 10498 10495 10492 10488 10485
10497 10499 10502 10504 10506 10508 10510 10512 10514 10516 10518 10520 10522 10524 10526 10527 10529 10530 10532 10533 10535 10537 10538 10540 10542 10544 10545 10546 10548 10550 10551 10552 10553 10554 10555 10556 10556 10557 10557 10557 10557 10557 10556 10557 10557 10557 10556 10554 10554 10554 10553 10553 10552 10551 10551 10551 10550 10548 10546 10545 10542 10541 10539 10537 10535 10533 10530 10528 10526 10523 10520 10518 10516 10514 10511 10508 10506 10503 10500 10497 10493 10490 10487 10484 10481 10477 10474
10491 10494 10496 10498 10500 10501 10503 10505 10507 10509 10512 10514 10516 10518 10520 10521 10522 10523 10525 10526 10527 10529 10531 10532 10534 10535 10536 10538 10540 10541 10542 10543 10544 10544 10544 10546 10547 10547 10546 10546 10546 10545 10545 10546 10547 10547 10546 10545 10544 10544 10543 10543 10541 10541 10541 10541 10540 10538 10536 10534 10532 10530 10528 10526 10524 10522 10519 10517 10514 10512 10509 10507 10504 10502 10500 10497 10494 10492 10489 10486 10483 10480 10477 10474 10471 10468 10465
10485 10487 10489 10491 10493 10495 10496 10498 10500 10502 10504 10506 10508 10510 10512 10513 10515 10516 10517 10518 10519 10520 10522 10524 10525 10525 10527 10529 10531 10532 10531 10532 10533 10534 10534 10535 10536 10537 10537 10536 10535 10534 10535 10536 10536 10537 10536 10535 10533 10533 10533 10532 10531 10530 10530 10530 10528 10526 10524 10522 10520 10519 10517 10515 10512 10510 10508 10505 10503 10500 10498 10496 10493 10491 10488 10485 10483 10481 10478 10476 10472 10469 10466 10463 10460 10458 10455
10478 10480 10482 10484 10486 10487 10489 10490 10492 10494 10495 10497 10499 10501 10503 10505 10507 10508 10508 10509 10510 10512 10514 10515 10515 10515 10517 10520 10522 10521 10520 10522 10524 10524 10524 10525 10526 10527 10527 10526 10525 10524 10525 10525 10526 10526 10525 10524 10523 10523 10522 10521 10520 10519 10519 10518 10516 10514 10512 10510 10508 10507 10505 10503 10501 10498 10496 10493 10491 10488 10486 10484 10482 10480 10477 10474 10472 10470 10467 10465 10462 10459 10456 10453 10450 10448 10445
10469 10471 10473 10475 10478 10479 10481 10482 10484 10486 10487 10489 10490 10492 10494 10495 10497 10498 10498 10499 10501 10503 10504 10505 10505 10506 10506 10509 10511 10510 10510 10511 10514 10514 10514 10514 10515 10515 10515 10515 10514 10513 10513 10513 10514 10514 10514 10513 10512 10511 10510 10508 10508 10507 10507 10506 10504 10501 10499 10497 10496 10494 10493 10491 10488 10485 10483 10481 10479 10477 10475 10473 10471 10468 10466 10463 10461 10459 10456 10453 10451 10448 10445 10443 10440 10438 10436
10462 10463 10465 10468 10471 10472 10473 10474 10476 10477 10479 10480 10481 10482 10484 10486 10487 10488 10488 10488 10491 10493 10494 10495 10496 10496 10495 10496 10499 10500 10500 10500 10502 10502 10502 10502 10502 10502 10503 10504 10503 10502 10501 10501 10501 10501 10501 10501 10500 10499 10497 10496 10495 10495 10494 10492 10490 10488 10487 10485 10483 10482 10480 10478 10475 10473 10471 10469 10467 10465 10463 10461 10459 10456 10454 10452 10450 10448 10445 10442 10440 10437 10435 10433 10431 10429 10428
10457 10458 10460 10463 10464 10464 10465 10467 10468 10469 10470 10471 10472 10473 10475 10476 10477 10478 10477 10478 10480 10483 10484 10484 10484 10484 10484 10485 10488 10490 10489 10488 10488 10489 10489 10490 10490 10490 10491 10491 10491 10490 10489 10489 10488 10487 10486 10487 10488 10487 10486 10484 10482 10481 10480 10479 10477 10475 10474 10472 10471 10469 10467 10465 10462 10460 10458 10457 10455 10453 10451 10449 10446 10444 10442 10441 10439 10436 10434 10431 10429 10427 10425 10423 10422 10420 10419